This demonstration page uses our WeatherBlox Daily Observations layout. Learn more.

Left ArrowRight Arrow

31.31129, -92.44514

Hourly Observations for December 18, 2021

Temp ( °F °C ) Dew Point ( °F °C ) Humidity (%) Winds ( mph kmh ) Pressure ( in mb ) Visibility ( mi km ) Precip ( " mm )
12:05 am 00:05 Mostly Cloudy 64 17.8 61 16.1 90 90 SE 5 7 29.99 1016 7 11 0.00 0.00
12:29 am 00:29 Cloudy with Mist and Fog 65 18.3 63 17.2 93 93 Calm 29.99 1016 5 8 0.00 0.00
12:46 am 00:46 Cloudy with Mist and Fog 65 18.3 63 17.2 93 93 Calm 29.99 1016 2 2 0.00 0.00
12:53 am 00:53 Mostly Cloudy with Fog 65 18.3 63 17.2 93 93 Calm 29.99 1016 1 1 0.00 0.00
1:05 am 01:05 Mostly Cloudy with Fog 66 18.9 64 17.8 93 93 Calm 29.99 1016 0 0 0.00 0.00
1:53 am 01:53 Mostly Cloudy with Fog 66 18.9 65 18.3 96 96 Calm 29.98 1015 0 0 0.00 0.00
2:31 am 02:31 Mostly Cloudy with Fog 67 19.4 66 18.9 97 97 S 7 11 29.98 1015 1 1 0.00 0.00
2:48 am 02:48 Cloudy with Mist and Fog 66 19 64 18 94 94 SSW 7 11 29.98 1015 3 4 0.00 0.00
2:49 am 02:49 Cloudy with Mist and Fog 67 19.4 65 18.3 93 93 SSW 7 11 29.98 1015 3 4 0.00 0.00
2:56 am 02:56 Cloudy with Mist and Fog 67 19.4 65 18.3 93 93 S 6 9 29.98 1015 3 5 0.00 0.00
3:14 am 03:14 Cloudy with Mist and Fog 67 19.4 65 18.3 93 93 S 6 9 29.98 1015 3 4 0.00 0.00
3:24 am 03:24 Cloudy with Mist and Fog 67 19.4 65 18.3 93 93 S 6 9 29.97 1015 4 6 0.00 0.00
3:53 am 03:53 Cloudy with Mist and Fog 67 19.4 65 18.3 93 93 S 6 9 29.97 1015 3 5 0.00 0.00
4:04 am 04:04 Cloudy with Mist and Fog 67 19.4 65 18.3 93 93 S 5 7 29.96 1015 3 4 0.00 0.00
4:12 am 04:12 Cloudy with Mist and Fog 67 19.4 65 18.3 93 93 SSW 7 11 29.96 1015 5 8 0.00 0.00
4:34 am 04:34 Cloudy with Mist and Fog 67 19.4 65 18.3 93 93 SSW 3 6 29.96 1015 2 3 0.00 0.00
4:53 am 04:53 Cloudy with Mist and Fog 67 19.4 65 18.3 93 93 Calm 29.97 1015 1 2 0.00 0.00
5:38 am 05:38 Cloudy with Mist and Fog 67 19.4 65 18.3 93 93 S 5 7 29.96 1015 2 3 0.00 0.00
5:53 am 05:53 Cloudy with Mist and Fog 67 19.4 65 18.3 93 93 S 3 6 29.97 1015 3 4 0.00 0.00
6:02 am 06:02 Cloudy with Mist and Fog 67 19.4 65 18.3 93 93 Calm 29.96 1015 4 6 0.00 0.00
6:53 am 06:53 Cloudy with Mist and Fog 67 19.4 66 18.9 97 97 S 3 6 29.98 1015 3 5 0.00 0.00
7:00 am 07:00 Cloudy with Mist and Fog 67 19.4 66 18.9 97 97 S 5 7 29.97 1015 2 3 0.00 0.00
7:35 am 07:35 Cloudy with Mist and Fog 68 20 66 18.9 93 93 SSE 6 9 29.98 1015 1 2 0.00 0.00
7:53 am 07:53 Cloudy with Mist and Fog 68 20 66 18.9 93 93 S 5 7 29.98 1015 1 2 0.00 0.00
8:02 am 08:02 Cloudy with Mist and Fog 68 20 67 19.4 96 96 S 6 9 29.98 1015 3 5 0.00 0.00
8:09 am 08:09 Cloudy with Mist and Fog 68 20 67 19.4 96 96 SSE 5 7 29.98 1015 1 2 0.00 0.00
8:53 am 08:53 Cloudy with Mist and Fog 69 20.6 67 19.4 93 93 SSE 8 13 29.98 1015 1 2 0.00 0.00
8:56 am 08:56 Cloudy with Mist and Fog 69 20.6 67 19.4 93 93 S 7 11 29.98 1015 3 5 0.00 0.00
9:38 am 09:38 Cloudy 70 21.1 67 19.4 90 90 S 6 9 29.98 1015 9 14 0.00 0.00
9:53 am 09:53 Cloudy 71 21.7 68 20 90 90 SSE 8 13 29.98 1015 10 16 0.00 0.00
10:53 am 10:53 Cloudy 73 22.8 68 20 84 84 SSW 7 11 29.99 1016 10 16 0.00 0.00
11:53 am 11:53 Cloudy 75 23.9 68 20 79 79 SSW 3 6 29.95 1014 10 16 0.00 0.00
12:00 pm 12:00 Mostly Cloudy 76 24.4 68 20 77 77 SW 6 9 29.94 1014 10 16 0.00 0.00
12:13 pm 12:13 Mostly Cloudy 77 25 67 19.4 71 71 SW 6 9 29.93 1013 10 16 0.00 0.00
12:53 pm 12:53 Mostly Cloudy 76 24.4 66 18.9 72 72 WSW 3 6 29.91 1013 10 16 0.00 0.00
1:53 pm 13:53 Cloudy with Light Rain 65 18.3 58 14.4 78 78 N 25 41 29.93 1013 10 16 0.01 0.25
2:09 pm 14:09 Cloudy with Heavy Rain 63 17.2 59 15 87 87 NNE 20 31 29.92 1013 2 3 0.11 2.79
2:19 pm 14:19 Cloudy with Rain 63 17.2 59 15 87 87 VRB 5 7 29.99 1016 3 5 0.14 3.56
2:30 pm 14:30 Cloudy with Heavy Rain 63 17.2 60 15.6 90 90 SSW 7 11 30.02 1017 2 2 0.29 7.37
2:33 pm 14:33 Cloudy with Heavy Rain 63 17.2 60 15.6 90 90 Calm 30.02 1017 1 1 0.34 8.64
2:40 pm 14:40 Cloudy with Heavy Rain 62 16.7 59 15 90 90 E 5 7 30.02 1017 1 1 0.47 11.94
2:48 pm 14:48 Cloudy with Heavy Rain 63 17 61 16 94 94 NE 5 7 30.00 1016 1 2 0.53 13.46
2:53 pm 14:53 Cloudy with Heavy Rain 62 16.7 60 15.6 93 93 N 8 13 30.01 1016 2 2 0.55 13.97
3:06 pm 15:06 Cloudy with Heavy Rain 62 16.7 59 15 90 90 N 9 15 29.99 1016 3 4 0.05 1.27
3:53 pm 15:53 Cloudy with Heavy Rain 62 16.7 59 15 90 90 N 9 15 30.01 1016 3 4 0.25 6.35
4:00 pm 16:00 Cloudy with Heavy Rain 62 16.7 59 15 90 90 N 9 15 30.00 1016 3 5 0.03 0.76
4:53 pm 16:53 Cloudy with Rain 62 16.7 59 15 90 90 NE 12 19 30.00 1016 7 11 0.20 5.08
5:53 pm 17:53 Cloudy with Rain 62 16.7 59 15 90 90 NE 12 19 30.00 1016 6 10 0.23 5.84
6:53 pm 18:53 Cloudy with Rain 62 16.7 59 15 90 90 ENE 9 15 29.99 1016 8 13 0.06 1.52
7:19 pm 19:19 Partly Cloudy with Light Rain 62 16.7 59 15 90 90 ENE 3 6 30.00 1016 10 16 0.00 0.00
7:46 pm 19:46 Mostly Cloudy 62 16.7 58 14.4 86 86 Calm 30.02 1017 10 16 0.00 0.00
7:53 pm 19:53 Mostly Cloudy 62 16.7 59 15 90 90 NW 3 6 30.04 1017 10 16 0.00 0.00
8:12 pm 20:12 Cloudy 62 16.7 59 15 90 90 NNW 6 9 30.03 1017 10 16 0.00 0.00
8:53 pm 20:53 Cloudy 62 16.7 59 15 90 90 N 6 9 30.05 1018 10 16 0.00 0.00
9:14 pm 21:14 Cloudy 62 16.7 59 15 90 90 N 7 11 30.04 1017 10 16 0.00 0.00
9:37 pm 21:37 Cloudy with Light Rain 61 16.1 57 13.9 87 87 N 21 33 30.05 1018 7 11 0.01 0.25
9:50 pm 21:50 Cloudy with Light Rain 57 14 54 12 88 88 N 18 30 30.05 1018 4 6 0.01 0.25
9:53 pm 21:53 Cloudy with Light Rain 57 13.9 54 12.2 90 90 N 16 26 30.07 1018 3 5 0.01 0.25
10:53 pm 22:53 Cloudy 55 12.8 50 10 83 83 N 16 26 30.11 1020 10 16 0.00 0.00
11:02 pm 23:02 Cloudy 54 12.2 50 10 87 87 N 18 30 30.10 1019 10 16 0.00 0.00
11:23 pm 23:23 Cloudy 53 11.7 49 9.4 86 86 N 17 28 30.11 1020 10 16 0.00 0.00
11:53 pm 23:53 Cloudy 52 11.1 47 8.3 83 83 NNE 13 20 30.11 1020 10 16 0.00 0.00

Powered by AerisWeather